Weather in Zagrivochnaya

Russia / Komi Republic     65°05′26″N   51°56′48″E
temp.,
°C
wind,
m/s
gust,
m/s
humid.,
%
clouds,
%
prec.,
mm/h
press.,
hPa
HPBL,
m
4 march, thu
thu400:00−14nw2696100 0.3 990294
03:00−16nw259798 0.5 990223
06:00−17nw249798 0.2 990185
09:00−16nw249598 0.3 990247
12:00−14nw2393100 0.1 990330
15:00−13nw2392100 0.2 991364
18:00−15nw249799 0.1 992135
21:00−16nw229798 0.3 99359
5 march, fri
fri500:00−17nnw259795 0.2 994197
03:00−19n259896 0.3 995214
06:00−20n269899 0.2 997251
09:00−20nnw259799 0.3 998268
12:00−17nnw3593100 0.1 999408
15:00−17nnw3592100 0.1 1001513
18:00−20nnw2499100 0.1 100390
21:00−23nw239997 0.1 100546
6 march, sat
sat600:00−22nw249896 0.0 1005138
03:00−22nw259896 0.1 1006200
06:00−23nw2498100 0.1 1006189
09:00−23nw249696 0.1 1007287
12:00−20nw2389100 0.1 1007470
15:00−20wnw1389100 0.1 1006533
18:00−24e0099100 0.0 100620
21:00−24s129899 0.1 100620
7 march, sun
sun700:00−25ssw129687 0.0 100619
03:00−25s129581 0.0 100620
06:00−27s229620 0.0 100519
09:00−22sse249455 0.0 1005231
12:00−17sse238793 0.0 1005390
15:00−16ese248996 0.1 1005482
18:00−19ese2597100 0.0 1006129
21:00−21ese229898 0.1 100739
8 march, mon
mon800:00−22e1298100 0.1 100741
03:00−23e2299100 0.1 100836
06:00−25ne229996 0.1 100938
09:00−23ne239898 0.1 1010232
12:00−20nne2495100 0.0 1010378
15:00−20n3593100 0.1 1011495
18:00−26n259899 0.0 1012123
21:00−29n229981 0.0 101419